Rogers, AR

1:43 PM CST on February 25, 2018 (GMT -0600)
Rogers Municipal-Carter

Weather History for KROG - December, 2013

Change the Weather History Date:

Monday, December 30, 2013

  Actual Average Record
Temperature  
Mean Temperature 25 °F -  
Max Temperature 36 °F 43 °F 66 °F (1996)
Min Temperature 14 °F 27 °F 10 °F (2000)
Degree Days  
Heating Degree Days 40    
Moisture  
Dew Point 17 °F    
Average Humidity 75    
Maximum Humidity 88    
Minimum Humidity 52    
Precipitation  
Precipitation 0.00 in - - ()
Sea Level Pressure  
Sea Level Pressure 30.31 in    
Wind  
Wind Speed 5 mph (WSW)    
Max Wind Speed 12 mph    
Max Gust Speed -    
Visibility 10 miles    
Events      
Averages and records for this station are not official NWS values.
T = Trace of Precipitation, MM = Missing Value Source: NWS Daily Summary

Daily Weather History Graph

Daily Weather History Graph

Search for Another Location

Airport or City:

Trip Planner

Search our weather history database for the weather conditions in past years. The results will help you decide how hot, cold, wet, or windy it might be!

Date:

Astronomy

Dec. 30, 2013 Rise Set
Actual Time 7:27 AM CST 5:10 PM CST
Civil Twilight 6:59 AM CST 5:39 PM CST
Nautical Twilight 6:26 AM CST 6:11 PM CST
Astronomical Twilight 5:55 AM CST 6:42 PM CST
Moon 5:19 AM CST (12/30) 3:43 PM CST (12/30)
Length of Visible Light 10h 40m
Length of Day
9h 43m
Waning Crescent, 4% of the Moon is Illuminated
Dec 30
Waning Crescent
Jan 1
New
Jan 7
First Quarter
Jan 15
Full
Jan 23
Last Quarter

Hourly Weather History & Observations

Time (CST) Temp. Windchill Dew Point Humidity Pressure Visibility Wind Dir Wind Speed Gust Speed Precip Events Conditions
12:57 AM 19.0 °F 13.9 °F 14.0 °F 81% 30.29 in 10.0 mi NE 3.5 mph - N/A   Clear
1:57 AM 18.0 °F 12.7 °F 14.0 °F 84% 30.30 in 10.0 mi NNE 3.5 mph - N/A   Clear
2:57 AM 17.1 °F 10.0 °F 12.9 °F 84% 30.29 in 10.0 mi NE 4.6 mph - N/A   Clear
3:57 AM 16.0 °F 7.4 °F 12.0 °F 84% 30.29 in 10.0 mi NNE 5.8 mph - N/A   Clear
4:57 AM 16.0 °F 8.8 °F 12.9 °F 88% 30.29 in 10.0 mi NNE 4.6 mph - N/A   Clear
5:57 AM 14.0 °F 6.5 °F 10.9 °F 88% 30.28 in 10.0 mi NE 4.6 mph - N/A   Clear
6:57 AM 14.0 °F 8.2 °F 10.0 °F 84% 30.31 in 10.0 mi North 3.5 mph - N/A   Clear
7:57 AM 14.0 °F - 10.0 °F 84% 30.33 in 10.0 mi Calm Calm - N/A   Clear
8:57 AM 18.0 °F 11.1 °F 12.9 °F 81% 30.32 in 10.0 mi East 4.6 mph - N/A   Clear
9:57 AM 21.9 °F 12.5 °F 17.1 °F 82% 30.32 in 10.0 mi ESE 8.1 mph - N/A   Clear
10:57 AM 28.0 °F 22.8 °F 17.1 °F 63% 30.32 in 10.0 mi ESE 4.6 mph - N/A   Clear
11:57 AM 30.0 °F 26.5 °F 18.0 °F 61% 30.30 in 10.0 mi West 3.5 mph - N/A   Clear
12:57 PM 33.1 °F 26.1 °F 18.0 °F 54% 30.26 in 10.0 mi South 8.1 mph - N/A   Clear
1:57 PM 36.0 °F 31.1 °F 19.9 °F 52% 30.25 in 10.0 mi WSW 5.8 mph - N/A   Clear
2:57 PM 35.1 °F 28.6 °F 19.9 °F 54% 30.25 in 10.0 mi West 8.1 mph - N/A   Clear
3:57 PM 36.0 °F 28.0 °F 21.9 °F 57% 30.27 in 10.0 mi SW 11.5 mph - N/A   Clear
4:57 PM 34.0 °F 28.0 °F 21.9 °F 61% 30.28 in 10.0 mi WSW 6.9 mph - N/A   Clear
5:57 PM 30.9 °F 25.2 °F 21.9 °F 69% 30.31 in 10.0 mi SW 5.8 mph - N/A   Clear
6:57 PM 28.9 °F 21.9 °F 23.0 °F 78% 30.34 in 10.0 mi West 6.9 mph - N/A   Clear
7:57 PM 27.0 °F 19.5 °F 21.9 °F 81% 30.37 in 10.0 mi SW 6.9 mph - N/A   Clear
8:57 PM 26.1 °F 18.4 °F 21.9 °F 84% 30.37 in 10.0 mi SSW 6.9 mph - N/A   Clear
9:57 PM 26.1 °F 17.6 °F 21.9 °F 84% 30.38 in 10.0 mi SW 8.1 mph - N/A   Clear
10:57 PM 25.0 °F 15.5 °F 21.9 °F 88% 30.39 in 10.0 mi SW 9.2 mph - N/A   Clear
11:57 PM 25.0 °F 18.1 °F 21.0 °F 85% 30.40 in 10.0 mi WSW 5.8 mph - N/A   Clear